SCP
3 3 3 2 2 3 3 3 3 2 2 2 2 1 1 1 1 1 1 1 1 1 1 1 1 1 1 1 1 1 1 1 1 0 0 0 0 0 0 0 0 0 1
3 3 3 3 3 4 4 4 3 2 2 2 2 1 1 1 1 1 1 1 1 2 1 1 1 1 1 1 1 1 1 1 1 1 0 0 0 0 0 0 0 0 1
2 2 3 3 4 6 7 6 4 3 2 2 1 1 1 1 1 1 1 2 2 2 2 2 1 1 1 1 1 1 1 1 1 1 0 0 0 0 0 0 0 1 1
2 2 2 3 5 8 10 9 6 4 2 2 1 1 1 1 1 1 1 1 2 2 2 2 2 2 2 1 1 1 1 1 1 1 1 1 0 0 0 0 0 0 1
2 2 3 3 6 9 10 9 6 4 2 2 2 1 1 1 1 1 1 1 1 2 2 2 2 2 1 1 1 1 2 2 1 1 1 1 1 1 0 0 0 0 0
2 3 3 3 5 7 7 7 5 4 2 2 2 1 1 1 1 1 1 1 1 1 2 2 2 2 2 1 2 2 2 2 2 2 2 2 2 1 1 0 0 0 0
3 3 4 4 5 6 6 6 5 4 3 2 2 2 1 1 1 1 1 1 1 2 2 2 2 2 2 2 2 2 2 3 3 3 2 2 2 2 1 1 0 0 0
4 5 6 7 8 8 7 6 4 3 3 3 3 3 2 2 2 1 1 1 1 2 2 2 3 3 3 3 3 3 3 3 3 3 3 2 2 2 2 1 1 0 0
6 7 10 12 11 9 7 5 3 3 3 3 3 3 3 3 2 2 2 2 2 2 2 3 3 4 4 4 4 4 4 4 4 3 3 3 3 2 2 2 1 1 0
9 11 13 13 11 8 5 3 3 3 3 4 4 3 3 3 3 3 3 3 3 3 3 3 3 4 4 5 5 5 5 5 5 4 3 3 3 3 2 2 2 1 1
10 11 12 11 8 6 4 4 3 3 3 3 3 3 3 3 4 4 4 5 5 5 5 4 4 4 4 5 6 6 6 6 6 5 4 3 3 3 3 2 2 2 1
9 9 9 8 6 5 6 6 4 3 3 3 3 3 4 4 4 4 5 5 6 6 6 6 5 4 5 5 6 6 7 7 7 6 5 4 4 3 3 3 2 2 2
8 7 6 6 5 6 7 8 7 5 4 4 4 4 4 5 5 5 5 6 7 7 7 7 7 6 5 6 6 7 7 6 6 5 4 4 4 4 3 3 2 2 2
8 8 7 5 5 6 8 9 8 7 6 12 17 12 5 5 6 6 7 8 8 8 8 8 7 7 7 7 7 7 6 6 5 4 4 4 4 4 4 3 3 2 3
10 11 10 7 6 6 7 7 8 7 7 18 30 18 6 7 8 8 9 9 9 9 9 9 9 8 7 8 8 8 6 5 4 3 3 3 3 4 4 4 3 3 2
12 13 12 10 8 7 7 7 6 7 8 15 19 15 9 10 11 11 10 10 9 9 10 11 10 9 7 7 7 7 6 5 4 3 3 3 3 3 4 4 3 3 3
11 11 10 10 10 9 8 7 6 7 8 8 9 10 11 12 13 13 12 10 9 8 9 10 10 8 6 6 6 6 6 5 4 3 3 3 3 3 3 4 3 3 3
9 9 9 10 12 12 11 10 9 8 8 8 9 11 13 13 14 14 13 11 8 8 9 8 7 6 5 4 4 5 5 5 3 3 2 3 3 2 2 3 3 3 3
8 9 11 14 16 15 14 15 15 14 12 11 11 12 13 13 13 13 13 11 9 9 9 8 6 4 4 3 3 3 4 4 3 2 2 2 2 2 1 2 2 2 2
8 11 15 19 21 18 14 15 17 18 17 15 14 13 13 12 10 9 10 11 11 12 11 10 7 5 3 3 2 2 4 4 3 2 2 1 1 1 1 1 1 1 1
13 17 21 24 23 18 13 12 13 15 16 15 14 13 11 9 7 7 9 11 14 15 14 12 9 7 4 2 1 2 3 4 3 2 1 1 1 1 1 1 1 1 1
18 21 24 24 21 15 11 10 11 11 11 11 12 11 9 7 7 7 9 13 17 19 18 15 11 8 5 3 1 1 2 3 3 2 1 1 1 1 1 0 1 1 0
17 19 21 18 14 11 10 11 11 11 10 9 10 10 10 9 8 8 11 16 20 21 20 16 11 7 4 3 2 1 1 2 2 2 1 1 0 0 0 0 0 0 0
10 13 15 13 11 11 12 12 12 10 9 8 8 9 10 9 8 9 12 17 20 21 19 15 10 6 4 3 3 2 1 1 2 2 1 1 0 0 0 0 0 0 0
6 9 12 12 12 12 12 12 10 10 9 8 8 9 9 8 8 9 11 13 15 15 14 12 9 6 4 4 3 3 2 2 1 1 1 1 1 1 0 0 0 0 0
5 8 11 12 12 11 11 10 10 10 9 8 8 9 8 7 7 8 9 8 8 8 7 7 6 5 4 4 3 3 3 2 1 1 1 1 1 1 1 0 0 0 0
Wind_Speed
10 10 11 11 10 8 7 7 7 6 4 3 2 2 1 1 1 1 3 3 3 4 3 3 2 2 2 2 2 2 2 1 2 2 2 2 1 0 1 1 1 2 2
9 10 10 10 10 10 8 8 8 6 5 4 3 2 2 2 1 1 2 3 3 4 4 4 3 2 2 2 2 2 2 1 2 3 2 1 2 2 0 0 1 1 1
13 13 12 11 11 10 10 9 8 6 5 4 2 2 2 1 0 0 1 3 3 3 4 4 3 3 3 2 2 3 3 2 1 2 3 3 2 1 2 1 0 1 1
12 12 13 13 13 12 10 8 8 7 6 5 4 3 3 2 2 2 2 2 3 3 4 4 4 3 3 3 3 3 3 3 2 0 1 2 3 2 0 2 1 0 1
13 14 14 14 13 12 10 9 8 7 7 6 6 5 3 2 2 1 2 2 2 3 4 4 4 4 3 3 3 3 3 2 3 2 1 1 1 2 2 1 1 1 1
13 13 13 12 11 11 10 9 9 8 7 7 6 6 5 4 3 2 2 2 2 2 3 4 4 4 3 3 3 3 3 2 2 2 2 2 2 2 2 2 1 1 1
13 13 13 13 12 12 12 10 10 9 8 7 7 6 6 6 5 4 3 3 2 2 3 3 4 3 3 3 3 3 3 3 3 2 2 2 2 2 3 2 1 1 1
12 13 14 14 13 14 12 11 11 9 9 8 7 6 6 4 4 4 4 4 3 3 4 4 4 4 4 4 3 2 2 2 2 2 2 2 2 2 3 3 3 1 0
13 13 12 12 12 13 13 12 12 9 9 9 8 6 6 5 5 4 4 3 3 3 3 4 4 3 3 3 3 2 2 2 2 2 2 2 2 1 2 3 4 4 2
10 11 10 11 11 10 10 10 11 10 9 8 7 7 6 5 5 4 4 4 4 3 4 4 4 3 3 3 3 2 2 3 3 2 2 2 2 2 2 2 2 3 4
9 10 10 10 10 9 9 9 9 8 8 8 7 7 6 6 5 4 5 4 4 4 4 4 4 4 3 3 3 3 3 3 3 2 3 3 2 2 1 2 2 2 3
8 9 10 9 9 9 9 10 10 9 9 8 7 7 6 5 5 5 5 4 4 4 4 4 4 4 4 4 4 4 3 4 3 3 2 3 2 2 2 2 2 2 3
7 6 7 8 9 9 9 10 10 10 9 8 7 7 6 6 6 6 5 4 4 4 3 4 4 4 4 4 4 4 4 4 4 4 3 3 2 2 2 2 2 2 2
7 6 6 6 7 7 9 10 9 9 8 8 8 8 8 7 6 5 4 4 4 4 4 4 4 4 3 3 3 3 3 3 3 3 3 4 4 4 4 3 3 3 3
6 6 6 6 6 6 6 6 6 7 8 8 8 8 7 5 5 4 4 4 4 4 3 3 3 3 3 3 4 4 4 3 2 2 3 3 4 5 4 3 3 4 3
7 6 6 6 6 7 6 6 6 7 7 8 8 7 6 5 5 5 4 4 3 3 3 3 3 3 3 3 4 4 3 3 3 3 3 3 3 3 4 4 5 7 6
8 8 9 8 7 6 6 7 7 7 7 6 6 6 6 6 6 5 4 4 3 2 2 2 2 3 3 4 4 5 4 3 3 3 2 2 1 2 2 2 3 5 7
8 7 6 6 6 6 5 5 5 6 6 6 5 5 6 6 5 5 5 4 3 3 3 2 2 3 3 4 5 5 3 2 2 3 3 3 2 2 2 2 2 3 4
6 6 6 6 5 5 5 5 4 5 5 5 5 5 5 5 5 5 5 4 3 2 3 3 3 3 3 5 5 5 2 2 2 2 3 3 3 3 3 3 3 3 3
5 5 5 6 5 4 5 5 5 5 4 4 4 4 4 5 5 5 4 3 3 3 3 2 3 4 4 5 5 6 3 2 2 2 2 3 3 4 5 4 4 4 4
5 6 6 5 5 5 6 6 4 4 4 3 3 3 3 3 4 4 3 3 3 3 3 2 2 3 4 4 5 6 3 3 3 2 2 2 4 4 5 5 5 6 4
4 5 5 4 3 4 6 5 3 2 2 3 3 2 2 2 2 3 3 3 4 3 3 2 2 1 2 3 4 6 5 4 4 3 3 3 4 5 5 5 5 5 3
4 4 6 5 3 3 4 3 2 2 3 3 2 2 2 2 1 2 3 2 2 2 2 2 2 2 1 2 4 5 6 5 3 3 4 4 4 5 4 5 5 4 2
3 4 6 5 3 3 3 2 2 2 3 3 2 2 2 1 1 0 1 2 3 3 2 3 2 2 2 2 2 2 3 4 3 2 3 3 3 3 3 3 3 3 3
3 4 5 5 3 3 3 2 2 3 3 2 2 2 1 1 1 1 1 1 2 3 4 4 3 3 3 5 5 4 3 3 3 2 1 1 1 1 2 2 2 2 2
3 3 4 4 4 4 3 3 3 3 4 2 2 2 2 1 1 1 1 3 1 1 1 3 3 3 4 4 4 5 5 5 4 3 2 2 3 3 3 3 3 3 3
Wind_Direction
182 172 167 161 157 157 156 156 154 160 150 138 137 134 147 159 154 172 171 168 169 160 152 153 153 145 145 164 157 135 119 109 116 88 52 21 17 134 186 184 166 181 190
176 173 169 165 166 168 166 161 164 166 165 161 161 162 157 168 175 187 183 182 173 172 166 157 158 153 145 142 143 134 129 157 139 127 114 32 352 348 286 193 174 172 165
182 179 174 174 170 173 173 170 167 166 168 161 139 118 87 55 56 171 192 198 183 172 162 160 157 156 154 160 165 153 147 161 195 156 148 155 208 277 321 296 201 167 168
183 180 176 176 178 179 173 165 167 167 169 161 155 156 162 178 202 194 190 192 187 173 164 164 160 158 154 155 170 154 148 144 165 227 195 175 160 158 263 321 307 218 176
183 182 180 180 178 175 172 170 167 173 176 170 172 169 179 190 192 176 162 174 182 181 176 167 156 156 159 162 160 150 149 154 160 175 177 140 121 145 154 224 287 321 304
188 185 179 172 173 174 174 172 171 180 180 177 176 177 179 181 175 185 180 187 189 189 181 167 162 165 166 169 172 164 161 170 168 170 166 163 164 178 166 187 218 239 275
184 179 173 172 175 177 178 177 176 182 184 181 184 186 187 186 188 194 192 187 185 195 202 181 170 172 177 174 169 161 171 174 172 182 189 185 192 173 162 155 179 206 268
177 178 178 176 178 179 178 178 181 185 184 185 189 190 191 188 193 196 192 193 193 199 198 183 179 179 176 174 165 163 178 167 176 190 189 195 212 180 168 165 158 157 292
172 172 174 174 176 180 183 182 183 185 188 189 187 190 192 191 195 198 193 195 198 196 184 175 174 177 173 173 167 173 182 169 183 198 201 211 230 199 185 174 165 160 179
171 168 173 177 178 177 179 182 182 185 187 189 190 192 193 195 198 192 194 195 199 188 173 171 172 178 179 180 175 182 193 182 200 202 202 219 223 204 189 182 179 165 164
166 167 171 177 173 168 172 180 182 182 187 190 190 191 192 193 193 198 199 196 196 187 185 186 180 181 187 184 180 195 193 192 210 213 202 221 213 203 208 186 176 169 154
154 169 173 169 167 173 175 179 185 187 192 192 189 193 192 188 193 201 202 196 198 196 192 189 186 192 192 187 187 198 194 195 207 216 205 228 219 207 213 193 190 187 172
149 156 163 166 173 178 180 182 192 193 192 187 186 190 191 190 196 200 198 195 192 195 195 192 193 198 195 192 196 195 195 201 209 207 202 221 212 219 216 207 199 189 173
148 157 165 167 170 178 182 184 193 190 186 183 183 190 195 196 197 194 190 183 180 182 195 204 198 196 193 191 197 191 185 203 219 214 205 209 209 210 207 199 196 180 158
146 160 169 169 166 172 181 181 189 188 184 179 184 192 190 185 179 178 182 180 182 185 190 188 195 199 194 196 193 192 190 198 214 231 223 218 211 208 203 193 188 172 164
162 163 164 166 170 174 183 181 193 190 176 176 187 186 178 177 180 182 181 178 181 184 178 183 190 200 214 205 195 190 193 194 199 222 240 235 218 214 207 200 187 176 173
164 171 177 173 175 175 174 180 187 174 164 176 181 177 176 178 183 180 175 181 181 173 184 196 190 201 215 187 177 183 175 188 203 210 217 231 224 197 199 210 198 195 192
160 165 176 170 166 162 165 167 160 155 163 172 182 180 176 182 183 177 181 182 174 176 192 203 203 203 208 186 179 178 173 185 207 209 201 202 216 213 198 209 218 222 214
150 147 148 149 150 148 147 136 140 148 155 175 185 187 182 181 180 185 187 179 167 175 196 193 197 207 224 198 185 175 173 194 220 217 205 200 202 224 201 195 216 237 247
132 131 130 122 124 137 135 135 147 141 152 177 180 176 177 180 185 187 178 171 172 190 195 192 199 202 211 203 184 173 172 196 227 246 235 212 204 215 203 196 206 223 237
122 126 123 130 143 143 133 132 142 161 178 158 142 148 162 178 177 168 168 165 171 175 184 197 207 206 212 207 189 179 183 196 207 224 237 243 234 223 215 208 213 224 218
116 122 121 124 122 125 129 133 154 178 143 124 119 129 139 156 145 145 161 162 165 176 191 194 212 226 226 209 209 203 209 206 200 216 225 236 234 229 224 222 232 223 204
119 118 120 113 93 94 111 130 178 136 115 116 127 121 111 117 124 153 159 153 165 178 194 194 212 235 237 233 228 217 217 214 213 225 224 230 231 229 234 237 232 216 199
109 112 111 111 106 104 109 140 149 119 124 133 127 100 98 83 70 98 161 162 178 189 194 202 216 226 234 237 230 227 226 224 230 243 243 234 229 229 239 245 237 218 207
117 117 122 128 136 131 141 166 152 139 137 136 130 120 112 111 91 66 71 181 211 208 198 206 198 199 224 237 222 201 210 214 217 205 223 237 240 250 255 248 237 224 214
124 120 131 148 158 154 158 175 172 152 149 155 155 149 146 143 146 134 48 24 24 1 198 189 185 220 237 234 213 209 207 201 185 167 208 230 229 230 235 235 235 225 223